WB6ANP Weather Reports


Display with metric or nautical units.
time (UTC)temp
F
wind
direction
speed
MPH
gust
MPH
rain 1hr
in
rain 24hr
in
rain mn
in
humidity
%
barometer
mb
20260906220327 98 101 4.0 11.0 0.00 0.00 0.00 36 1011.7
20260906215825 98 89 9.0 12.0 0.00 0.00 0.00 36 1011.8
20260906215321 98 105 3.0 8.0 0.00 0.00 0.00 36 1011.8
20260906214818 98 118 5.0 11.0 0.00 0.00 0.00 36 1011.9
20260906214313 98 82 6.0 12.0 0.00 0.00 0.00 36 1011.9
20260906213813 98 99 4.0 11.0 0.00 0.00 0.00 37 1012.0
20260906213313 98 105 7.0 14.0 0.00 0.00 0.00 36 1012.2
20260906212810 98 117 11.0 13.0 0.00 0.00 0.00 36 1012.0
20260906212306 99 147 10.0 13.0 0.00 0.00 0.00 36 1012.0
20260906211805 98 101 8.0 11.0 0.00 0.00 0.00 36 1012.1
20260906211300 98 132 5.0 13.0 0.00 0.00 0.00 36 1012.3
20260906210756 97 124 6.0 12.0 0.00 0.00 0.00 37 1012.4
20260906210256 98 79 7.0 14.0 0.00 0.00 0.00 37 1012.5
20260906205756 98 91 3.0 10.0 0.00 0.00 0.00 37 1012.4
20260906205252 97 119 5.0 10.0 0.00 0.00 0.00 37 1012.3
20260906204748 97 104 6.0 11.0 0.00 0.00 0.00 37 1012.5
20260906204247 97 105 8.0 13.0 0.00 0.00 0.00 38 1012.5
20260906203746 97 93 9.0 14.0 0.00 0.00 0.00 37 1012.6
20260906203242 98 127 9.0 12.0 0.00 0.00 0.00 37 1012.7
20260906202738 97 79 6.0 9.0 0.00 0.00 0.00 38 1012.7
20260906202238 98 119 9.0 12.0 0.00 0.00 0.00 37 1012.6
20260906201733 97 114 13.0 13.0 0.00 0.00 0.00 37 1012.8
20260906201232 96 115 6.0 13.0 0.00 0.00 0.00 38 1012.9
20260906200728 97 100 7.0 16.0 0.00 0.00 0.00 37 1013.0
20260906200224 98 154 9.0 11.0 0.00 0.00 0.00 35 1012.9
20260906195719 96 141 5.0 7.0 0.00 0.00 0.00 38 1012.9
20260906195216 96 111 8.0 13.0 0.00 0.00 0.00 38 1012.9
20260906194711 96 94 5.0 10.0 0.00 0.00 0.00 38 1013.1
20260906194207 96 112 9.0 13.0 0.00 0.00 0.00 38 1013.2
20260906193702 96 96 4.0 15.0 0.00 0.00 0.00 38 1013.1
20260906193156 96 112 6.0 14.0 0.00 0.00 0.00 39 1012.9
20260906192652 97 84 11.0 14.0 0.00 0.00 0.00 35 1013.2
20260906192152 96 104 4.0 10.0 0.00 0.00 0.00 37 1013.2
20260906191646 96 97 5.0 6.0 0.00 0.00 0.00 39 1013.5
20260906191146 97 100 11.0 15.0 0.00 0.00 0.00 38 1013.2
20260906190640 96 124 11.0 13.0 0.00 0.00 0.00 38 1013.4
20260906190135 96 87 8.0 11.0 0.00 0.00 0.00 37 1013.5
20260906185634 97 115 3.0 6.0 0.00 0.00 0.00 36 1013.3
20260906185133 96 265 4.0 5.0 0.00 0.00 0.00 37 1013.5
20260906184628 96 97 6.0 12.0 0.00 0.00 0.00 39 1013.5
20260906184124 96 95 5.0 7.0 0.00 0.00 0.00 38 1013.6
20260906183619 96 134 6.0 16.0 0.00 0.00 0.00 37 1013.7
20260906183115 96 112 3.0 10.0 0.00 0.00 0.00 38 1013.7
20260906182610 95 120 7.0 9.0 0.00 0.00 0.00 40 1013.8
20260906182106 96 97 4.0 6.0 0.00 0.00 0.00 38 1013.9
20260906181607 95 147 9.0 11.0 0.00 0.00 0.00 39 1013.9
20260906181102 95 73 12.0 13.0 0.00 0.00 0.00 40 1014.0
20260906180557 95 108 6.0 11.0 0.00 0.00 0.00 40 1014.1
20260906180056 95 99 5.0 11.0 0.00 0.00 0.00 40 1014.1
20260906175555 95 138 2.0 7.0 0.00 0.00 0.00 40 1014.0
20260906175050 94 105 11.0 14.0 0.00 0.00 0.00 40 1014.4
20260906174548 94 116 5.0 15.0 0.00 0.00 0.00 42 1014.4
20260906174044 95 103 8.0 9.0 0.00 0.00 0.00 41 1014.6
20260906173538 95 123 7.0 11.0 0.00 0.00 0.00 43 1014.6
20260906173035 94 77 6.0 9.0 0.00 0.00 0.00 43 1014.8
20260906172528 95 104 9.0 11.0 0.00 0.00 0.00 42 1014.7
20260906172024 95 83 6.0 13.0 0.00 0.00 0.00 42 1014.9
20260906171519 95 142 5.0 12.0 0.00 0.00 0.00 41 1015.1
20260906171014 95 113 6.0 11.0 0.00 0.00 0.00 42 1015.0
20260906170510 94 117 7.0 8.0 0.00 0.00 0.00 45 1015.0
20260906170009 94 138 9.0 13.0 0.00 0.00 0.00 45 1015.3
20260906165506 93 141 7.0 8.0 0.00 0.00 0.00 46 1015.2
20260906165001 95 154 9.0 11.0 0.00 0.00 0.00 44 1015.1
20260906164500 94 124 10.0 13.0 0.00 0.00 0.00 44 1015.1
20260906163956 93 159 6.0 7.0 0.00 0.00 0.00 46 1015.2
20260906163451 93 101 6.0 9.0 0.00 0.00 0.00 47 1015.4
20260906162950 93 120 8.0 12.0 0.00 0.00 0.00 47 1015.3
20260906162448 92 150 5.0 10.0 0.00 0.00 0.00 47 1015.2
20260906161944 93 128 13.0 13.0 0.00 0.00 0.00 43 1015.0
20260906161444 93 71 7.0 8.0 0.00 0.00 0.00 47 1015.2
20260906160943 92 85 6.0 8.0 0.00 0.00 0.00 49 1015.4
20260906160436 92 77 5.0 7.0 0.00 0.00 0.00 49 1015.3
20260906155935 93 76 4.0 8.0 0.00 0.00 0.00 48 1015.3
20260906155434 91 89 3.0 5.0 0.00 0.00 0.00 51 1015.1
20260906154930 91 103 3.0 10.0 0.00 0.00 0.00 51 1015.0
20260906154425 93 74 5.0 9.0 0.00 0.00 0.00 49 1015.3
20260906153923 92 121 3.0 5.0 0.00 0.00 0.00 50 1015.1
20260906153422 92 78 2.0 6.0 0.00 0.00 0.00 51 1015.3
20260906152918 92 238 2.0 2.0 0.00 0.00 0.00 52 1015.0
20260906152413 92 93 3.0 5.0 0.00 0.00 0.00 52 1015.1
20260906151911 93 54 3.0 4.0 0.00 0.00 0.00 51 1015.4
20260906151408 91 107 2.0 4.0 0.00 0.00 0.00 54 1015.0
20260906150903 92 108 3.0 4.0 0.00 0.00 0.00 53 1014.9
20260906150358 90 154 2.0 5.0 0.00 0.00 0.00 55 1015.1
20260906145858 89 144 3.0 4.0 0.00 0.00 0.00 58 1015.0
20260906145356 89 142 3.0 5.0 0.00 0.00 0.00 57 1015.0
20260906144851 89 133 4.0 6.0 0.00 0.00 0.00 59 1014.7
20260906144346 88 111 2.0 6.0 0.00 0.00 0.00 60 1014.9
20260906143846 87 105 2.0 4.0 0.00 0.00 0.00 62 1014.9
20260906143342 87 85 4.0 4.0 0.00 0.00 0.00 61 1015.0
20260906142838 87 94 4.0 5.0 0.00 0.00 0.00 62 1014.8
20260906142333 86 126 3.0 6.0 0.00 0.00 0.00 63 1015.0
20260906141833 85 119 4.0 5.0 0.00 0.00 0.00 65 1014.9
20260906141327 85 86 4.0 5.0 0.00 0.00 0.00 66 1014.8
20260906140826 85 127 3.0 5.0 0.00 0.00 0.00 66 1015.0
20260906140321 84 173 3.0 6.0 0.00 0.00 0.00 67 1015.1
20260906135819 84 131 6.0 7.0 0.00 0.00 0.00 68 1015.0
20260906135314 83 118 6.0 7.0 0.00 0.00 0.00 69 1015.0
20260906134809 82 117 5.0 7.0 0.00 0.00 0.00 70 1015.0
20260906134304 82 106 3.0 6.0 0.00 0.00 0.00 70 1014.9
20260906133800 82 116 3.0 6.0 0.00 0.00 0.00 71 1014.8
20260906133255 81 91 3.0 6.0 0.00 0.00 0.00 72 1014.8
20260906132750 81 95 5.0 5.0 0.00 0.00 0.00 73 1014.7
20260906132246 80 97 6.0 6.0 0.00 0.00 0.00 74 1014.7
20260906131741 80 123 4.0 5.0 0.00 0.00 0.00 75 1014.9
20260906131236 80 101 4.0 4.0 0.00 0.00 0.00 76 1014.7
20260906130732 80 109 4.0 6.0 0.00 0.00 0.00 76 1014.7
20260906130227 79 84 4.0 4.0 0.00 0.00 0.00 76 1014.7
20260906125725 79 131 3.0 4.0 0.00 0.00 0.00 77 1014.7
20260906125223 78 109 4.0 4.0 0.00 0.00 0.00 78 1014.5
20260906124724 77 122 3.0 5.0 0.00 0.00 0.00 79 1014.7
20260906124220 77 94 3.0 3.0 0.00 0.00 0.00 80 1014.5
20260906123718 76 102 3.0 4.0 0.00 0.00 0.00 82 1014.4
20260906123214 75 111 4.0 4.0 0.00 0.00 0.00 85 1014.2
20260906122713 74 116 2.0 2.0 0.00 0.00 0.00 86 1014.1
20260906122208 74 115 1.0 2.0 0.00 0.00 0.00 86 1014.4
20260906121705 74 117 2.0 2.0 0.00 0.00 0.00 85 1014.2
20260906121201 74 101 2.0 3.0 0.00 0.00 0.00 85 1014.2
20260906120656 74 122 4.0 5.0 0.00 0.00 0.00 85 1014.2
20260906120153 74 133 4.0 4.0 0.00 0.00 0.00 86 1014.0
20260906115648 74 126 4.0 4.0 0.00 0.00 0.00 86 1013.9
20260906115143 74 126 4.0 4.0 0.00 0.00 0.00 87 1013.7
20260906114642 74 92 2.0 3.0 0.00 0.00 0.00 86 1013.7
20260906114137 74 127 4.0 4.0 0.00 0.00 0.00 86 1013.6
20260906113638 74 97 2.0 3.0 0.00 0.00 0.00 86 1013.7
20260906113137 74 119 2.0 3.0 0.00 0.00 0.00 85 1013.7
20260906112637 74 114 2.0 2.0 0.00 0.00 0.00 85 1013.7
20260906112134 75 104 1.0 2.0 0.00 0.00 0.00 84 1013.7
20260906111633 75 107 1.0 2.0 0.00 0.00 0.00 84 1013.6
20260906111128 75 150 2.0 3.0 0.00 0.00 0.00 84 1013.6
20260906110624 75 155 1.0 3.0 0.00 0.00 0.00 85 1013.5
20260906110124 76 159 2.0 2.0 0.00 0.00 0.00 82 1013.5
20260906105618 76 116 3.0 3.0 0.00 0.00 0.00 82 1013.5
20260906105115 75 112 4.0 4.0 0.00 0.00 0.00 83 1013.5
20260906104614 75 144 2.0 3.0 0.00 0.00 0.00 83 1013.4
20260906104108 75 152 2.0 3.0 0.00 0.00 0.00 82 1013.4
20260906103606 76 136 2.0 3.0 0.00 0.00 0.00 81 1013.5
20260906103102 76 118 1.0 3.0 0.00 0.00 0.00 81 1013.1
20260906102601 76 120 3.0 4.0 0.00 0.00 0.00 82 1013.4
20260906102057 76 137 3.0 4.0 0.00 0.00 0.00 82 1013.4
20260906101557 76 98 2.0 3.0 0.00 0.00 0.00 82 1013.5
20260906101051 75 128 2.0 3.0 0.00 0.00 0.00 83 1013.5
20260906100547 75 124 2.0 3.0 0.00 0.00 0.00 83 1013.3
20260906100048 75 146 2.0 2.0 0.00 0.00 0.00 83 1013.3
20260906095547 76 123 1.0 2.0 0.00 0.00 0.00 81 1013.4
20260906095043 76 161 2.0 2.0 0.00 0.00 0.00 80 1013.3
20260906094542 77 103 2.0 3.0 0.00 0.00 0.00 79 1013.2
20260906094038 77 122 4.0 4.0 0.00 0.00 0.00 79 1013.1
20260906093533 77 126 4.0 4.0 0.00 0.00 0.00 80 1013.2
20260906093028 77 130 2.0 3.0 0.00 0.00 0.00 80 1013.1
20260906092523 77 138 2.0 2.0 0.00 0.00 0.00 79 1013.0
20260906092018 77 111 2.0 3.0 0.00 0.00 0.00 79 1012.9
20260906091514 77 110 2.0 2.0 0.00 0.00 0.00 78 1012.8
20260906091011 78 122 2.0 3.0 0.00 0.00 0.00 76 1012.8
20260906090510 78 113 1.0 2.0 0.00 0.00 0.00 76 1012.9
20260906090011 79 121 3.0 3.0 0.00 0.00 0.00 75 1013.0
20260906085510 79 128 3.0 3.0 0.00 0.00 0.00 75 1012.8
20260906085010 79 113 2.0 2.0 0.00 0.00 0.00 75 1012.7
20260906084510 79 125 2.0 2.0 0.00 0.00 0.00 74 1012.8
20260906084009 79 181 2.0 2.0 0.00 0.00 0.00 74 1012.8
20260906083505 80 199 1.0 2.0 0.00 0.00 0.00 74 1012.8
20260906083004 80 173 2.0 3.0 0.00 0.00 0.00 74 1012.9
20260906082459 80 113 2.0 2.0 0.00 0.00 0.00 73 1012.6
20260906081955 80 132 3.0 4.0 0.00 0.00 0.00 73 1012.7
20260906081450 80 116 2.0 3.0 0.00 0.00 0.00 73 1012.8
20260906080946 80 121 2.0 4.0 0.00 0.00 0.00 72 1012.8
20260906080443 80 154 2.0 4.0 0.00 0.00 0.00 72 1013.0
20260906075943 81 119 3.0 5.0 0.00 0.00 0.00 72 1013.1
20260906075438 81 121 2.0 4.0 0.00 0.00 0.00 72 1013.3
20260906074933 81 141 4.0 5.0 0.00 0.00 0.00 71 1013.0
20260906074433 81 124 4.0 6.0 0.00 0.00 0.00 71 1013.1
20260906073931 81 128 2.0 4.0 0.00 0.00 0.00 71 1013.2
20260906073426 81 99 3.0 5.0 0.00 0.00 0.00 70 1013.2
20260906072923 81 132 6.0 6.0 0.00 0.00 0.00 70 1013.2
20260906072418 82 131 4.0 4.0 0.00 0.00 0.00 70 1013.2
20260906071914 81 120 3.0 4.0 0.00 0.00 0.00 70 1013.1
20260906071409 81 131 3.0 5.0 0.00 0.00 0.00 70 1013.1
20260906070905 81 179 1.0 7.0 0.00 0.00 0.00 70 1012.9
20260906070401 81 120 4.0 5.0 0.00 0.00 0.00 72 1013.0
20260906065856 80 120 2.0 3.0 0.00 0.00 0.00 72 1013.0
20260906065350 81 201 1.0 3.0 0.00 0.00 0.00 71 1013.1
20260906064846 81 120 3.0 5.0 0.00 0.00 0.00 71 1013.2
20260906064343 81 132 2.0 3.0 0.00 0.00 0.00 70 1013.4
20260906063842 81 123 2.0 4.0 0.00 0.00 0.00 70 1013.4
20260906063338 82 119 4.0 4.0 0.00 0.00 0.00 69 1013.2
20260906062833 82 134 3.0 5.0 0.00 0.00 0.00 68 1013.4
20260906062332 82 134 4.0 5.0 0.00 0.00 0.00 68 1013.3
20260906061827 82 142 2.0 4.0 0.00 0.00 0.00 68 1013.3
20260906061324 82 113 2.0 3.0 0.00 0.00 0.00 68 1013.2
20260906060818 82 177 1.0 2.0 0.00 0.00 0.00 68 1013.4
20260906060316 82 133 2.0 4.0 0.00 0.00 0.00 68 1013.5
20260906055812 82 129 2.0 4.0 0.00 0.00 0.00 67 1013.7
20260906055307 82 101 1.0 4.0 0.00 0.00 0.00 67 1013.7
20260906054802 82 140 3.0 4.0 0.00 0.00 0.00 67 1013.6
20260906054258 82 140 2.0 4.0 0.00 0.00 0.00 66 1013.6
20260906053754 82 121 3.0 5.0 0.00 0.00 0.00 66 1013.4
20260906053250 83 129 5.0 5.0 0.00 0.00 0.00 65 1013.8
20260906052744 83 125 3.0 4.0 0.00 0.00 0.00 65 1013.7
20260906052240 83 138 3.0 3.0 0.00 0.00 0.00 64 1013.8
20260906051738 83 128 3.0 4.0 0.00 0.00 0.00 64 1013.6
20260906051237 83 115 4.0 4.0 0.00 0.00 0.00 64 1013.5
20260906050732 83 155 1.0 2.0 0.00 0.00 0.00 63 1013.4
20260906050227 83 155 1.0 2.0 0.00 0.00 0.00 63 1013.6
20260906045726 83 135 2.0 2.0 0.00 0.00 0.00 62 1013.6
20260906045221 83 144 2.0 4.0 0.00 0.00 0.00 61 1013.5
20260906044717 84 128 3.0 3.0 0.00 0.00 0.00 61 1013.6
20260906044212 84 123 4.0 5.0 0.00 0.00 0.00 61 1013.6
20260906043708 84 133 4.0 5.0 0.00 0.00 0.00 60 1013.2
20260906043204 84 125 4.0 5.0 0.00 0.00 0.00 59 1013.4
20260906042703 84 130 3.0 4.0 0.00 0.00 0.00 59 1013.6
20260906042203 84 143 2.0 5.0 0.00 0.00 0.00 59 1013.3
20260906041658 84 114 4.0 5.0 0.00 0.00 0.00 59 1013.6
20260906041154 84 125 2.0 4.0 0.00 0.00 0.00 59 1013.4
20260906040649 84 130 3.0 4.0 0.00 0.00 0.00 59 1013.4
20260906040144 84 112 3.0 4.0 0.00 0.00 0.00 59 1013.5
20260906035645 84 134 2.0 3.0 0.00 0.00 0.00 57 1013.5
20260906035140 85 129 2.0 3.0 0.00 0.00 0.00 56 1013.4
20260906034636 85 121 2.0 2.0 0.00 0.00 0.00 55 1013.5
20260906034136 86 133 2.0 3.0 0.00 0.00 0.00 55 1013.5
20260906033631 86 135 2.0 3.0 0.00 0.00 0.00 54 1013.5
20260906033126 86 132 3.0 5.0 0.00 0.00 0.00 54 1013.2
20260906032623 87 137 3.0 4.0 0.00 0.00 0.00 53 1013.4
20260906032122 87 140 4.0 6.0 0.00 0.00 0.00 53 1013.2
20260906031618 87 131 3.0 4.0 0.00 0.00 0.00 52 1013.1
20260906031113 87 110 2.0 4.0 0.00 0.00 0.00 52 1013.2
20260906030612 87 130 6.0 6.0 0.00 0.00 0.00 52 1013.1
20260906030108 87 133 7.0 8.0 0.00 0.00 0.00 51 1013.1
20260906025607 87 123 4.0 4.0 0.00 0.00 0.00 51 1013.2
20260906025106 88 127 3.0 7.0 0.00 0.00 0.00 50 1012.9
20260906024601 88 152 4.0 6.0 0.00 0.00 0.00 50 1013.0
20260906024055 88 138 4.0 6.0 0.00 0.00 0.00 50 1012.9
20260906023551 88 126 4.0 5.0 0.00 0.00 0.00 49 1012.8
20260906023046 88 139 3.0 5.0 0.00 0.00 0.00 48 1012.8
20260906022541 88 138 4.0 5.0 0.00 0.00 0.00 48 1012.7
20260906022036 88 120 3.0 3.0 0.00 0.00 0.00 48 1012.5
20260906021532 88 135 2.0 4.0 0.00 0.00 0.00 47 1012.6
20260906021031 89 122 4.0 5.0 0.00 0.00 0.00 47 1012.6
20260906020530 89 133 3.0 4.0 0.00 0.00 0.00 46 1012.6
20260906020030 88 132 3.0 6.0 0.00 0.00 0.00 47 1012.3
20260906015530 88 154 2.0 2.0 0.00 0.00 0.00 47 1012.2
20260906015030 88 155 2.0 2.0 0.00 0.00 0.00 47 1012.1
20260906014525 88 154 2.0 2.0 0.00 0.00 0.00 47 1012.0
20260906014021 89 155 1.0 2.0 0.00 0.00 0.00 46 1012.0
20260906013516 89 156 1.0 2.0 0.00 0.00 0.00 45 1012.0
20260906013011 90 128 2.0 3.0 0.00 0.00 0.00 44 1012.0
20260906012507 90 123 2.0 3.0 0.00 0.00 0.00 44 1011.7
20260906012005 90 123 3.0 3.0 0.00 0.00 0.00 44 1011.8
20260906011502 91 130 3.0 4.0 0.00 0.00 0.00 43 1011.7
20260906010956 91 122 3.0 3.0 0.00 0.00 0.00 43 1011.6
20260906010452 91 135 2.0 4.0 0.00 0.00 0.00 42 1011.7
20260906005948 92 119 3.0 4.0 0.00 0.00 0.00 42 1011.6
20260906005447 92 127 3.0 4.0 0.00 0.00 0.00 41 1011.5
20260906004945 93 133 3.0 4.0 0.00 0.00 0.00 40 1011.7
20260906004440 93 126 2.0 4.0 0.00 0.00 0.00 39 1011.6
20260906003936 94 130 3.0 4.0 0.00 0.00 0.00 39 1011.6
20260906003436 94 134 4.0 4.0 0.00 0.00 0.00 38 1011.7
20260906002931 95 135 6.0 6.0 0.00 0.00 0.00 38 1011.6
20260906002431 95 140 3.0 5.0 0.00 0.00 0.00 38 1011.6
20260906001926 95 134 4.0 6.0 0.00 0.00 0.00 37 1011.6
20260906001422 96 127 7.0 11.0 0.00 0.00 0.00 37 1011.4
20260906000917 96 126 6.0 11.0 0.00 0.00 0.00 36 1011.3
20260906000412 96 144 4.0 6.0 0.00 0.00 0.00 36 1011.3
20260905235907 96 127 8.0 9.0 0.00 0.00 0.00 36 1011.4
20260905235401 97 119 4.0 7.0 0.00 0.00 0.00 35 1011.3
20260905234856 97 134 6.0 10.0 0.00 0.00 0.00 35 1011.1
20260905234351 97 137 4.0 6.0 0.00 0.00 0.00 35 1011.4
20260905233846 97 126 6.0 9.0 0.00 0.00 0.00 35 1011.4
20260905233341 98 101 4.0 9.0 0.00 0.00 0.00 35 1011.3
20260905232840 98 150 6.0 8.0 0.00 0.00 0.00 34 1011.1
20260905232337 98 149 4.0 6.0 0.00 0.00 0.00 34 1011.0
20260905231832 98 132 7.0 9.0 0.00 0.00 0.00 33 1011.3
20260905231327 98 114 4.0 13.0 0.00 0.00 0.00 33 1011.0
20260905230824 98 145 5.0 6.0 0.00 0.00 0.00 34 1010.9
20260905230321 98 110 7.0 12.0 0.00 0.00 0.00 33 1011.3
20260905225821 97 164 2.0 11.0 0.00 0.00 0.00 34 1011.1
20260905225316 98 140 12.0 13.0 0.00 0.00 0.00 33 1011.0
20260905224816 98 125 5.0 11.0 0.00 0.00 0.00 33 1011.4
20260905224311 98 110 5.0 12.0 0.00 0.00 0.00 33 1010.8
20260905223806 98 78 6.0 9.0 0.00 0.00 0.00 32 1011.1
20260905223304 98 113 5.0 8.0 0.00 0.00 0.00 33 1011.0
20260905222759 99 111 5.0 10.0 0.00 0.00 0.00 33 1011.3
20260905222257 99 114 3.0 7.0 0.00 0.00 0.00 33 1011.1
20260905221754 98 149 5.0 10.0 0.00 0.00 0.00 34 1011.5
20260905221250 99 132 8.0 13.0 0.00 0.00 0.00 33 1011.4
20260905220746 98 123 2.0 5.0 0.00 0.00 0.00 33 1011.5